FW7023 Weather Reports


Display with metric or nautical units.
time (UTC)temp
F
wind
direction
speed
MPH
gust
MPH
rain 1hr
in
rain 24hr
in
rain mn
in
humidity
%
barometer
mb
20260903135258 82 171 1.0 1.0 0.00 0.00 0.00 67 1013.6
20260903134757 82 207 1.0 2.0 0.00 0.00 0.00 68 1013.4
20260903134253 82 141 1.0 2.0 0.00 0.00 0.00 68 1013.6
20260903133750 81 204 3.0 3.0 0.00 0.00 0.00 69 1013.6
20260903133246 81 189 1.0 2.0 0.00 0.00 0.00 70 1013.5
20260903132740 80 150 1.0 1.0 0.00 0.00 0.00 70 1013.5
20260903132235 80 173 2.0 2.0 0.00 0.00 0.00 70 1013.4
20260903131731 80 147 0.0 0.0 0.00 0.00 0.00 71 1013.4
20260903131230 80 178 0.0 1.0 0.00 0.00 0.00 71 1013.4
20260903130725 79 158 0.0 0.0 0.00 0.00 0.00 72 1013.4
20260903130220 79 173 1.0 1.0 0.00 0.00 0.00 72 1013.4
20260903125718 78 192 1.0 2.0 0.00 0.00 0.00 73 1013.4
20260903125214 78 187 1.0 2.0 0.00 0.00 0.00 74 1013.2
20260903124713 77 165 0.0 1.0 0.00 0.00 0.00 77 1013.4
20260903124209 77 157 0.0 0.0 0.00 0.00 0.00 78 1013.4
20260903123707 76 162 0.0 0.0 0.00 0.00 0.00 77 1013.4
20260903123206 76 166 0.0 0.0 0.00 0.00 0.00 77 1013.2
20260903122705 76 156 0.0 0.0 0.00 0.00 0.00 78 1013.1
20260903122200 76 157 0.0 0.0 0.00 0.00 0.00 78 1013.3
20260903121659 75 158 0.0 0.0 0.00 0.00 0.00 79 1013.2
20260903121155 75 153 0.0 0.0 0.00 0.00 0.00 81 1013.2
20260903120654 75 151 0.0 1.0 0.00 0.00 0.00 80 1013.1
20260903120148 75 160 0.0 0.0 0.00 0.00 0.00 81 1013.1
20260903115647 75 163 0.0 0.0 0.00 0.00 0.00 81 1012.8
20260903115143 75 159 0.0 0.0 0.00 0.00 0.00 82 1013.0
20260903114637 75 157 0.0 0.0 0.00 0.00 0.00 81 1013.0
20260903114133 75 162 0.0 0.0 0.00 0.00 0.00 80 1012.9
20260903113628 76 155 0.0 0.0 0.00 0.00 0.00 80 1012.9
20260903113124 77 155 0.0 0.0 0.00 0.00 0.00 79 1012.8
20260903112620 77 160 0.0 0.0 0.00 0.00 0.00 77 1012.7
20260903112120 77 161 0.0 0.0 0.00 0.00 0.00 74 1012.7
20260903111619 77 152 0.0 0.0 0.00 0.00 0.00 74 1012.8
20260903111115 77 165 0.0 0.0 0.00 0.00 0.00 73 1012.7
20260903110611 77 163 0.0 0.0 0.00 0.00 0.00 74 1012.6
20260903110106 77 161 0.0 0.0 0.00 0.00 0.00 75 1012.9
20260903105601 77 162 0.0 0.0 0.00 0.00 0.00 75 1012.5
20260903105055 77 160 0.0 0.0 0.00 0.00 0.00 75 1012.4
20260903104549 78 155 0.0 0.0 0.00 0.00 0.00 73 1012.5
20260903104045 79 157 0.0 0.0 0.00 0.00 0.00 71 1012.6
20260903103541 80 160 0.0 0.0 0.00 0.00 0.00 69 1012.3
20260903103037 80 167 0.0 0.0 0.00 0.00 0.00 68 1012.5
20260903102532 80 169 0.0 0.0 0.00 0.00 0.00 67 1012.4
20260903102031 81 155 0.0 0.0 0.00 0.00 0.00 67 1012.3
20260903101526 81 169 1.0 2.0 0.00 0.00 0.00 66 1012.3
20260903101022 81 206 1.0 1.0 0.00 0.00 0.00 65 1012.4
20260903100516 81 229 0.0 0.0 0.00 0.00 0.00 64 1012.3
20260903100015 82 198 2.0 2.0 0.00 0.00 0.00 65 1012.2
20260903095513 82 164 0.0 0.0 0.00 0.00 0.00 64 1012.1
20260903095009 82 189 2.0 2.0 0.00 0.00 0.00 64 1012.2
20260903094503 82 200 1.0 1.0 0.00 0.00 0.00 64 1012.1
20260903093959 82 178 1.0 1.0 0.00 0.00 0.00 64 1012.2
20260903093459 81 170 0.0 1.0 0.00 0.00 0.00 65 1012.0
20260903092954 80 170 1.0 2.0 0.00 0.00 0.00 68 1012.1
20260903092454 77 192 2.0 3.0 0.00 0.00 0.00 73 1012.0
20260903091954 76 169 0.0 1.0 0.00 0.00 0.00 76 1012.3
20260903091451 76 147 0.0 0.0 0.00 0.00 0.00 80 1012.1
20260903090947 77 162 0.0 0.0 0.00 0.00 0.00 81 1012.4
20260903090443 77 144 0.0 1.0 0.00 0.00 0.00 80 1012.5
20260903085941 78 151 0.0 0.0 0.00 0.00 0.00 78 1012.2
20260903085439 78 159 0.0 0.0 0.00 0.00 0.00 75 1012.2
20260903084940 77 167 0.0 0.0 0.00 0.00 0.00 75 1012.2
20260903084438 76 173 0.0 0.0 0.00 0.00 0.00 76 1012.1
20260903083933 75 160 0.0 0.0 0.00 0.00 0.00 83 1012.1
20260903083429 74 162 0.0 0.0 0.00 0.00 0.00 86 1012.2
20260903082928 74 162 0.0 0.0 0.00 0.00 0.00 87 1012.2
20260903082423 74 169 0.0 0.0 0.00 0.00 0.00 87 1012.4
20260903081919 75 162 0.0 0.0 0.00 0.00 0.00 87 1012.1
20260903081414 75 155 0.0 0.0 0.00 0.00 0.00 87 1012.3
20260903080910 74 154 0.0 1.0 0.00 0.00 0.00 87 1012.2
20260903080406 74 158 0.0 0.0 0.00 0.00 0.00 87 1012.3
20260903075901 74 158 0.0 0.0 0.00 0.00 0.00 87 1012.2
20260903075356 74 162 0.0 0.0 0.00 0.00 0.00 87 1012.0
20260903074851 74 162 0.0 0.0 0.00 0.00 0.00 88 1012.1
20260903074351 74 159 0.0 0.0 0.00 0.00 0.00 88 1012.3
20260903073846 75 154 0.0 0.0 0.00 0.00 0.00 88 1012.2
20260903073341 75 157 0.0 0.0 0.00 0.00 0.00 88 1012.3
20260903072837 75 161 0.0 0.0 0.00 0.00 0.00 87 1012.2
20260903072333 75 157 0.0 0.0 0.00 0.00 0.00 87 1012.0
20260903071830 75 160 0.0 0.0 0.00 0.00 0.00 87 1012.1
20260903071325 75 155 0.0 0.0 0.00 0.00 0.00 87 1012.2
20260903070820 75 165 0.0 0.0 0.00 0.00 0.00 87 1012.3
20260903070315 76 159 0.0 0.0 0.00 0.00 0.00 86 1012.3
20260903065810 76 159 0.0 0.0 0.00 0.00 0.00 87 1012.5
20260903065309 75 149 0.0 0.0 0.00 0.00 0.00 87 1012.2
20260903064808 75 164 0.0 0.0 0.00 0.00 0.00 87 1012.4
20260903064259 76 159 0.0 0.0 0.00 0.00 0.00 86 1012.3
20260903063755 76 159 0.0 0.0 0.00 0.00 0.00 86 1012.2
20260903063255 76 159 0.0 0.0 0.00 0.00 0.00 86 1012.3
20260903062751 76 159 0.0 0.0 0.00 0.00 0.00 86 1012.2
20260903062250 76 157 0.0 0.0 0.00 0.00 0.00 85 1012.4
20260903061747 77 157 0.0 0.0 0.00 0.00 0.00 85 1012.1
20260903061245 76 159 0.0 0.0 0.00 0.00 0.00 86 1012.1
20260903060742 76 155 0.0 0.0 0.00 0.00 0.00 85 1012.1
20260903060241 77 155 0.0 0.0 0.00 0.00 0.00 85 1012.2
20260903055739 77 154 0.0 0.0 0.00 0.00 0.00 84 1012.1
20260903055237 77 155 0.0 0.0 0.00 0.00 0.00 84 1012.0
20260903054733 77 163 0.0 0.0 0.00 0.00 0.00 84 1012.3
20260903054228 77 162 0.0 0.0 0.00 0.00 0.00 83 1012.2
20260903053725 78 177 0.0 0.0 0.00 0.00 0.00 83 1012.3
20260903053224 78 162 0.0 0.0 0.00 0.00 0.00 83 1012.2
20260903052720 77 154 0.0 0.0 0.00 0.00 0.00 83 1012.1
20260903052216 78 156 0.0 0.0 0.00 0.00 0.00 83 1012.1
20260903051710 78 164 0.0 0.0 0.00 0.00 0.00 82 1012.1
20260903051206 78 162 0.0 0.0 0.00 0.00 0.00 82 1012.1
20260903050702 78 160 0.0 0.0 0.00 0.00 0.00 82 1012.1
20260903050200 78 160 0.0 0.0 0.00 0.00 0.00 81 1011.9
20260903045655 78 160 0.0 0.0 0.00 0.00 0.00 81 1012.1
20260903045152 78 157 0.0 0.0 0.00 0.00 0.00 81 1012.1
20260903044647 78 164 0.0 0.0 0.00 0.00 0.00 81 1012.0
20260903044137 79 155 0.0 0.0 0.00 0.00 0.00 80 1011.9
20260903043634 79 164 0.0 0.0 0.00 0.00 0.00 80 1012.1
20260903043133 79 160 0.0 0.0 0.00 0.00 0.00 79 1012.1
20260903042632 79 159 0.0 0.0 0.00 0.00 0.00 78 1012.0
20260903042127 80 158 0.0 0.0 0.00 0.00 0.00 78 1012.1
20260903041624 80 155 0.0 0.0 0.00 0.00 0.00 78 1012.1
20260903041120 80 160 0.0 0.0 0.00 0.00 0.00 78 1012.1
20260903040618 80 159 0.0 0.0 0.00 0.00 0.00 78 1012.1
20260903040109 80 161 0.0 0.0 0.00 0.00 0.00 77 1012.1
20260903035604 80 167 0.0 0.0 0.00 0.00 0.00 77 1012.4
20260903035100 80 170 0.0 0.0 0.00 0.00 0.00 77 1012.1
20260903034555 80 161 0.0 0.0 0.00 0.00 0.00 77 1012.3
20260903034050 81 172 0.0 0.0 0.00 0.00 0.00 76 1012.2
20260903033545 81 161 0.0 0.0 0.00 0.00 0.00 75 1012.1
20260903033040 81 157 0.0 0.0 0.00 0.00 0.00 75 1012.1
20260903032535 81 161 0.0 0.0 0.00 0.00 0.00 75 1012.3
20260903032031 81 158 0.0 0.0 0.00 0.00 0.00 73 1012.0
20260903031530 81 164 0.0 0.0 0.00 0.00 0.00 70 1012.1
20260903031026 82 167 0.0 0.0 0.00 0.00 0.00 70 1012.2
20260903030521 82 163 0.0 0.0 0.00 0.00 0.00 69 1012.2
20260903030017 82 163 0.0 0.0 0.00 0.00 0.00 69 1012.3
20260903025512 82 165 0.0 0.0 0.00 0.00 0.00 72 1011.9
20260903025008 83 166 0.0 0.0 0.00 0.00 0.00 70 1012.3
20260903024507 83 162 0.0 0.0 0.00 0.00 0.00 71 1012.3
20260903024002 83 162 0.0 0.0 0.00 0.00 0.00 70 1012.4
20260903023458 84 161 0.0 0.0 0.00 0.00 0.00 70 1012.0
20260903022953 84 162 0.0 0.0 0.00 0.00 0.00 69 1011.8
20260903022452 84 162 0.0 0.0 0.00 0.00 0.00 67 1012.1
20260903021949 84 163 0.0 0.0 0.00 0.00 0.00 66 1012.0
20260903021445 84 164 0.0 0.0 0.00 0.00 0.00 65 1012.1
20260903020941 84 168 0.0 0.0 0.00 0.00 0.00 65 1011.9
20260903020436 85 168 0.0 0.0 0.00 0.00 0.00 64 1011.8
20260903015930 85 170 0.0 0.0 0.00 0.00 0.00 64 1011.7
20260903015426 85 170 0.0 0.0 0.00 0.00 0.00 63 1011.5
20260903014921 85 169 0.0 0.0 0.00 0.00 0.00 63 1011.6
20260903014421 86 169 0.0 0.0 0.00 0.00 0.00 62 1011.7
20260903013916 86 169 0.0 0.0 0.00 0.00 0.00 62 1011.3
20260903013416 86 169 0.0 0.0 0.00 0.00 0.00 62 1011.3
20260903012915 86 172 0.0 0.0 0.00 0.00 0.00 61 1011.5
20260903012414 87 167 0.0 0.0 0.00 0.00 0.00 61 1011.5
20260903011913 87 168 0.0 0.0 0.00 0.00 0.00 60 1011.2
20260903011408 87 170 0.0 0.0 0.00 0.00 0.00 60 1011.2
20260903010903 87 170 0.0 0.0 0.00 0.00 0.00 59 1011.1
20260903010359 88 176 0.0 0.0 0.00 0.00 0.00 58 1011.1
20260903005856 88 175 1.0 1.0 0.00 0.00 0.00 58 1011.4
20260903005352 89 172 0.0 0.0 0.00 0.00 0.00 57 1011.2
20260903004848 90 167 0.0 0.0 0.00 0.00 0.00 56 1011.3
20260903004343 90 181 0.0 1.0 0.00 0.00 0.00 54 1011.1
20260903003838 92 173 1.0 1.0 0.00 0.00 0.00 53 1010.9
20260903003333 93 167 0.0 0.0 0.00 0.00 0.00 49 1011.0
20260903002832 94 181 1.0 1.0 0.00 0.00 0.00 49 1011.0
20260903002327 94 165 0.0 0.0 0.00 0.00 0.00 45 1011.1
20260903001822 95 215 0.0 2.0 0.00 0.00 0.00 44 1011.1
20260903001318 95 181 0.0 0.0 0.00 0.00 0.00 43 1011.3
20260903000817 96 189 1.0 2.0 0.00 0.00 0.00 43 1011.1
20260903000312 96 155 0.0 0.0 0.00 0.00 0.00 42 1011.0
20260902235810 96 208 3.0 3.0 0.00 0.00 0.00 41 1010.7
20260902235300 97 169 0.0 0.0 0.00 0.00 0.00 40 1011.2
20260902234754 97 242 4.0 5.0 0.00 0.00 0.00 39 1011.1
20260902234253 97 214 3.0 3.0 0.00 0.00 0.00 39 1011.1
20260902233747 97 193 0.0 1.0 0.00 0.00 0.00 40 1011.2
20260902233242 97 213 3.0 3.0 0.00 0.00 0.00 39 1011.1
20260902232741 97 177 1.0 1.0 0.00 0.00 0.00 39 1011.2
20260902232241 98 214 7.0 8.0 0.00 0.00 0.00 38 1011.3
20260902231740 98 209 1.0 2.0 0.00 0.00 0.00 39 1011.2
20260902231236 99 211 2.0 2.0 0.00 0.00 0.00 37 1011.1
20260902230735 98 227 3.0 3.0 0.00 0.00 0.00 37 1011.1
20260902230234 98 177 0.0 1.0 0.00 0.00 0.00 38 1011.1
20260902225729 98 173 1.0 2.0 0.00 0.00 0.00 38 1011.1
20260902225224 99 227 2.0 3.0 0.00 0.00 0.00 38 1011.2
20260902224722 99 176 1.0 1.0 0.00 0.00 0.00 38 1011.2
20260902224218 99 172 0.0 0.0 0.00 0.00 0.00 38 1011.3
20260902223714 99 27 3.0 5.0 0.00 0.00 0.00 38 1011.2
20260902223213 99 212 3.0 5.0 0.00 0.00 0.00 37 1011.4
20260902222712 99 195 3.0 5.0 0.00 0.00 0.00 37 1011.3
20260902222207 100 196 2.0 5.0 0.00 0.00 0.00 38 1011.3
20260902221702 100 132 1.0 1.0 0.00 0.00 0.00 36 1011.2
20260902221201 100 216 3.0 5.0 0.00 0.00 0.00 36 1011.2
20260902220656 100 198 3.0 3.0 0.00 0.00 0.00 37 1011.1
20260902220151 100 225 2.0 3.0 0.00 0.00 0.00 36 1011.2
20260902215647 100 263 3.0 5.0 0.00 0.00 0.00 37 1011.3
20260902215142 100 167 3.0 3.0 0.00 0.00 0.00 36 1011.5
20260902214637 99 212 1.0 1.0 0.00 0.00 0.00 38 1011.5
20260902214136 98 217 3.0 3.0 0.00 0.00 0.00 39 1011.3
20260902213632 99 194 3.0 3.0 0.00 0.00 0.00 38 1011.5
20260902213131 99 187 3.0 3.0 0.00 0.00 0.00 38 1011.6
20260902212626 100 155 4.0 6.0 0.00 0.00 0.00 38 1011.7
20260902212122 100 227 4.0 6.0 0.00 0.00 0.00 38 1011.7
20260902211619 100 193 7.0 9.0 0.00 0.00 0.00 38 1011.8
20260902211114 100 213 5.0 6.0 0.00 0.00 0.00 38 1011.8
20260902210613 100 180 5.0 6.0 0.00 0.00 0.00 38 1011.8
20260902210108 100 197 4.0 6.0 0.00 0.00 0.00 37 1012.0
20260902205607 100 156 1.0 2.0 0.00 0.00 0.00 38 1012.1
20260902205103 99 166 1.0 1.0 0.00 0.00 0.00 39 1011.9
20260902204602 100 221 4.0 7.0 0.00 0.00 0.00 36 1012.1
20260902204057 100 160 4.0 5.0 0.00 0.00 0.00 37 1012.2
20260902203553 101 184 5.0 6.0 0.00 0.00 0.00 37 1012.4
20260902203052 101 188 2.0 2.0 0.00 0.00 0.00 36 1012.2
20260902202548 100 190 0.0 1.0 0.00 0.00 0.00 37 1012.3
20260902202044 100 198 5.0 6.0 0.00 0.00 0.00 37 1012.1
20260902201540 100 183 1.0 2.0 0.00 0.00 0.00 38 1012.4
20260902201039 100 274 1.0 1.0 0.00 0.00 0.00 39 1012.6
20260902200534 100 213 3.0 3.0 0.00 0.00 0.00 37 1012.3
20260902200030 99 196 4.0 5.0 0.00 0.00 0.00 40 1012.5
20260902195526 99 167 1.0 2.0 0.00 0.00 0.00 39 1012.7
20260902195025 100 177 1.0 2.0 0.00 0.00 0.00 38 1012.7
20260902194524 100 260 2.0 2.0 0.00 0.00 0.00 37 1012.7
20260902194020 99 216 5.0 8.0 0.00 0.00 0.00 38 1012.9
20260902193516 100 224 8.0 10.0 0.00 0.00 0.00 38 1012.9
20260902193015 100 168 0.0 1.0 0.00 0.00 0.00 39 1012.9
20260902192514 100 116 1.0 2.0 0.00 0.00 0.00 39 1012.8
20260902192012 99 177 0.0 0.0 0.00 0.00 0.00 39 1013.1
20260902191508 99 220 5.0 7.0 0.00 0.00 0.00 40 1013.0
20260902191003 99 211 3.0 5.0 0.00 0.00 0.00 41 1012.8
20260902190458 100 224 5.0 7.0 0.00 0.00 0.00 40 1013.3
20260902185953 100 161 0.0 1.0 0.00 0.00 0.00 39 1013.2
20260902185450 100 248 2.0 3.0 0.00 0.00 0.00 40 1013.2
20260902184944 100 177 0.0 2.0 0.00 0.00 0.00 41 1013.3
20260902184439 99 166 0.0 0.0 0.00 0.00 0.00 42 1013.4
20260902183935 100 207 4.0 5.0 0.00 0.00 0.00 41 1013.7
20260902183431 100 188 3.0 5.0 0.00 0.00 0.00 40 1013.6
20260902182927 100 212 5.0 6.0 0.00 0.00 0.00 40 1013.8
20260902182424 99 193 2.0 3.0 0.00 0.00 0.00 41 1013.9
20260902181920 100 188 2.0 2.0 0.00 0.00 0.00 41 1013.9
20260902181415 99 142 2.0 2.0 0.00 0.00 0.00 41 1013.7
20260902180915 99 186 4.0 6.0 0.00 0.00 0.00 41 1013.8
20260902180410 99 190 3.0 6.0 0.00 0.00 0.00 41 1014.1
20260902175906 98 229 1.0 2.0 0.00 0.00 0.00 44 1014.1
20260902175401 98 186 1.0 2.0 0.00 0.00 0.00 42 1014.0
20260902174856 98 136 2.0 3.0 0.00 0.00 0.00 44 1014.1
20260902174353 97 200 2.0 2.0 0.00 0.00 0.00 46 1014.4
20260902173849 98 162 5.0 6.0 0.00 0.00 0.00 45 1014.1
20260902173348 98 171 1.0 1.0 0.00 0.00 0.00 46 1014.4
20260902172843 98 251 1.0 2.0 0.00 0.00 0.00 43 1014.8
20260902172342 96 294 2.0 2.0 0.00 0.00 0.00 46 1014.8
20260902171837 97 224 2.0 2.0 0.00 0.00 0.00 46 1014.6
20260902171333 97 186 2.0 3.0 0.00 0.00 0.00 46 1014.5
20260902170829 96 179 1.0 2.0 0.00 0.00 0.00 45 1014.8
20260902170324 97 208 9.0 10.0 0.00 0.00 0.00 44 1014.8
20260902165820 96 99 4.0 6.0 0.00 0.00 0.00 45 1014.6
20260902165319 95 158 4.0 7.0 0.00 0.00 0.00 47 1014.9
20260902164814 95 163 1.0 3.0 0.00 0.00 0.00 48 1014.8
20260902164308 94 141 2.0 3.0 0.00 0.00 0.00 49 1014.9
20260902163758 94 250 5.0 7.0 0.00 0.00 0.00 48 1014.9
20260902163257 95 213 5.0 8.0 0.00 0.00 0.00 48 1014.9
20260902162756 95 190 2.0 5.0 0.00 0.00 0.00 48 1015.0
20260902162251 96 204 3.0 3.0 0.00 0.00 0.00 47 1015.2
20260902161751 95 259 4.0 5.0 0.00 0.00 0.00 48 1014.9
20260902161247 95 170 1.0 2.0 0.00 0.00 0.00 48 1014.9
20260902160743 94 146 1.0 2.0 0.00 0.00 0.00 50 1014.9
20260902160243 93 223 2.0 2.0 0.00 0.00 0.00 50 1014.8
20260902155741 93 322 2.0 3.0 0.00 0.00 0.00 50 1014.9
20260902155240 93 242 5.0 6.0 0.00 0.00 0.00 50 1015.1
20260902154735 93 147 5.0 6.0 0.00 0.00 0.00 50 1015.0
20260902154230 93 216 2.0 2.0 0.00 0.00 0.00 51 1015.2
20260902153724 92 247 2.0 2.0 0.00 0.00 0.00 51 1015.0
20260902153224 91 141 1.0 2.0 0.00 0.00 0.00 52 1015.0
20260902152720 91 292 1.0 1.0 0.00 0.00 0.00 53 1015.0
20260902152215 92 185 4.0 8.0 0.00 0.00 0.00 52 1015.0
20260902151711 92 195 2.0 2.0 0.00 0.00 0.00 53 1015.0
20260902151206 91 209 2.0 3.0 0.00 0.00 0.00 54 1014.9
20260902150701 91 216 3.0 3.0 0.00 0.00 0.00 54 1015.1
20260902150156 90 263 4.0 5.0 0.00 0.00 0.00 54 1015.0
20260902145655 90 143 3.0 5.0 0.00 0.00 0.00 54 1014.9
20260902145155 90 94 1.0 2.0 0.00 0.00 0.00 55 1014.8
20260902144652 90 150 0.0 1.0 0.00 0.00 0.00 55 1014.9
20260902144147 89 125 1.0 1.0 0.00 0.00 0.00 57 1015.0
20260902143642 88 2 3.0 3.0 0.00 0.00 0.00 57 1015.0
20260902143137 88 215 4.0 5.0 0.00 0.00 0.00 57 1015.0
20260902142633 87 146 1.0 2.0 0.00 0.00 0.00 58 1014.9
20260902142129 86 188 1.0 2.0 0.00 0.00 0.00 60 1014.9
20260902141628 86 68 1.0 1.0 0.00 0.00 0.00 60 1015.1
20260902141124 86 188 0.0 0.0 0.00 0.00 0.00 60 1014.8
20260902140619 85 165 1.0 2.0 0.00 0.00 0.00 61 1015.0
20260902140114 84 202 4.0 5.0 0.00 0.00 0.00 62 1015.1